Regional Weather Roundup
Issued by NWS Cleveland, OH

Home | Current Version | Previous Version | Graphics & Text | Print | Product List | Glossary On
Versions: 1 2 3 4 5 6 7 8 9 10 11 12 13 14 15 16 17 18 19 20 21 22 23 24 25 26 27 28 29 30 31 32 33 34 35 36 37 38 39 40 41 42 43 44 45 46 47 48 49 50
000
ASUS41 KCLE 270010
RWRCLE
OHIO REGIONAL WEATHER ROUNDUP
NATIONAL WEATHER SERVICE WILMINGTON, OH
700 PM EST MON JAN 26 2015

NOTE: "FAIR" INDICATES FEW OR NO CLOUDS BELOW 12,000 FEET WITH NO
SIGNIFICANT WEATHER AND/OR OBSTRUCTIONS TO VISIBILITY.

OHZ001>008-015>018-024>027-034-035-043-044-270100-
   NORTHWEST OHIO

CITY           SKY/WX    TMP DP  RH WIND       PRES   REMARKS
DEFIANCE       PTCLDY    15   7  70 CALM      29.93F
FINDLAY        PTCLDY    13   8  81 CALM      29.93R
TOLEDO EXPRESS PTCLDY    17  11  77 SE3       29.93S
TOLEDO EXEC    PTCLDY    15   7  70 CALM      29.96R
LIMA           PTCLDY    13   8  81 CALM      29.92S
$$

OHZ009>014-019>023-028>033-038-089-270100-
   NORTHEAST OHIO

CITY           SKY/WX    TMP DP  RH WIND       PRES   REMARKS
CLE-HOPKINS    LGT SNOW  20  15  81 N9        29.94R WCI   9
CLE-LAKEFRONT  CLOUDY    22  15  75 N9        29.92R WCI  12
CUY CO. ARPT   CLOUDY    21  18  86 N14       29.90R WCI   8
LORAIN-ELYRIA  CLOUDY    19  12  74 N8        29.93R WCI   9
ASHTABULA      FLURRIES  20  15  81 N7        29.87R WCI  11
AKRON-CANTON   CLOUDY    20  15  81 N10       29.85R WCI   9
WOOSTER        CLOUDY    18  14  84 N13       29.88R WCI   5
MANSFIELD      CLOUDY    15  10  80 NW9       29.89R WCI   3
YOUNGSTOWN     CLOUDY    19  15  84 N10       29.84R WCI   7
$$

OHZ042-051>053-060>062-070>072-077>081-270100-
  SOUTHWEST OHIO

CITY           SKY/WX    TMP DP  RH WIND       PRES   REMARKS
CINC-COVINGTON MOCLDY    27  18  69 N3        29.92R
CINC-LUNKEN    CLEAR     25  16  68 NE7       29.96R WCI  17
HAMILTON       PTCLDY    21  14  74 CALM      29.95S
DAYTON         MOCLDY    14  10  84 CALM      29.93S
WRIGHT-PAT AFB PTCLDY    17  10  74 N3        29.93F
DAYTON GENERAL CLEAR     18  12  77 N3        29.92S
WILMINGTON     CLEAR     17  10  74 N5        29.92R WCI  10
$$

OHZ036-037-039>041-045>050-054>059-063>069-073>076-082>088-270100-
  CENTRAL AND SOUTHEAST OHIO

CITY           SKY/WX    TMP DP  RH WIND       PRES   REMARKS
COLUMBUS       PTCLDY    16  10  77 NW9       29.93R WCI   4
OSU AIRPORT    PTCLDY    12   8  84 NW5       29.93R WCI   4
BOLTON FIELD   CLOUDY    15  10  83 NW6       29.94R WCI   6
RICKENBACK AFB MOCLDY    16  12  84 NW7       29.94R WCI   6
NEWARK         CLEAR     16  10  77 NW7       29.91R WCI   6
MARION         CLOUDY     8   5  87 N3        29.93R
LANCASTER      PTCLDY    17  12  80 NW6       29.93R WCI   9
ZANESVILLE     CLOUDY    22  15  75 N8        29.89R WCI  12
NEW PHILLY     CLOUDY    22  16  78 NW9       29.88R WCI  12
$$



USA.gov is the U.S. government's official web portal to all federal, state and local government web resources and services.